Video statistics

Date Title Duration Views Likes Dislikes Comments Transcribed Length
2016-02-18 Crash Course Physics Preview 02:36 290,788 15,789 128 3,102 2,641
2016-03-31 Motion in a Straight Line: Crash Course Physics #1 10:40 2,113,500 28,970 949 4,389 12,106
2016-04-07 Derivatives: Crash Course Physics #2 10:02 878,243 12,720 600 2,194 11,643
2016-04-14 Integrals: Crash Course Physics #3 10:09 486,456 7,192 265 1,197 12,355
2016-04-21 Vectors and 2D Motion: Crash Course Physics #4 10:06 677,217 7,909 222 898 11,302
2016-04-28 Newton's Laws: Crash Course Physics #5 11:04 1,543,422 16,111 626 1,659 12,950
2016-05-05 Friction: Crash Course Physics #6 10:59 822,344 8,661 329 907 13,025
2016-05-12 Uniform Circular Motion: Crash Course Physics #7 09:54 729,903 7,991 346 792 12,388
2016-05-19 Newtonian Gravity: Crash Course Physics #8 09:20 472,175 6,095 166 614 11,307
2016-05-26 Work, Energy, and Power: Crash Course Physics #9 09:55 1,000,824 10,617 415 1,155 12,126
2016-06-02 Collisions: Crash Course Physics #10 09:21 455,051 5,268 149 568 11,819
2016-06-09 Rotational Motion: Crash Course Physics #11 08:55 602,475 5,925 321 670 11,091
2016-06-16 Torque: Crash Course Physics #12 08:03 393,390 5,153 203 751 10,721
2016-06-23 Statics: Crash Course Physics #13 09:08 227,463 3,346 100 475 10,394
2016-06-30 Outtakes #1: Crash Course Physics 03:27 73,435 1,808 41 146 2,912
2016-07-08 Fluids at Rest: Crash Course Physics #14 09:59 312,521 5,017 92 468 12,205
2016-07-14 Fluids in Motion: Crash Course Physics #15 09:47 282,104 4,342 88 433 12,167
2016-07-21 Simple Harmonic Motion: Crash Course Physics #16 09:11 449,006 5,080 206 462 11,214
2016-07-28 Traveling Waves: Crash Course Physics #17 07:45 457,506 5,916 168 403 9,017
2016-08-04 Sound: Crash Course Physics #18 09:39 714,758 7,374 238 503 11,159
2016-08-11 The Physics of Music: Crash Course Physics #19 10:35 352,167 5,665 144 596 12,866
2016-08-18 Temperature: Crash Course Physics #20 09:02 213,681 3,087 78 261 10,812
2016-08-25 Outtakes #2: Crash Course Physics 04:59 54,755 1,120 50 130 3,779
2016-09-01 Kinetic Theory and Phase Changes: Crash Course Physics #21 09:09 238,041 3,049 91 361 11,092
2016-09-08 The Physics of Heat: Crash Course Physics #22 09:16 373,339 4,834 176 499 11,597
2016-09-15 Thermodynamics: Crash Course Physics #23 10:04 455,746 5,536 203 637 12,554
2016-09-22 Engines: Crash Course Physics #24 10:21 156,068 2,518 91 229 12,877
2016-09-29 Electric Charge: Crash Course Physics #25 09:42 518,551 6,383 180 531 11,484
2016-10-07 Electric Fields: Crash Course Physics #26 09:57 425,539 4,513 239 385 11,951
2016-10-14 Voltage, Electric Energy, and Capacitors: Crash Course Physics #27 10:14 280,423 3,124 316 424 12,464
2016-10-20 Electric Current: Crash Course Physics #28 08:23 555,115 5,730 338 508 10,399
2016-10-27 DC Resistors & Batteries: Crash Course Physics #29 10:48 196,090 2,597 83 243 13,205
2016-11-04 Circuit Analysis: Crash Course Physics #30 10:56 386,324 5,788 163 460 12,588
2016-11-10 Outtakes #3: Crash Course Physics 06:21 40,880 847 35 92 5,117
2016-11-18 Capacitors and Kirchhoff: Crash Course Physics #31 10:38 206,851 2,368 89 203 13,006
2016-12-01 Magnetism: Crash Course Physics #32 09:47 380,603 4,878 189 565 12,152
2016-12-08 Ampère's Law: Crash Course Physics #33 08:45 268,903 3,794 148 256 10,905
2016-12-16 Induction - An Introduction: Crash Course Physics #34 09:49 322,743 3,817 215 374 11,762
2016-12-22 How Power Gets to Your Home: Crash Course Physics #35 08:33 133,812 2,222 111 295 10,772
2017-01-06 AC Circuits: Crash Course Physics #36 10:07 234,358 3,138 293 461 12,439
2017-01-13 Maxwell's Equations: Crash Course Physics #37 10:49 214,075 3,431 181 371 13,876
2017-01-19 Geometric Optics: Crash Course Physics #38 09:40 293,204 4,015 151 323 12,128
2017-01-26 Light Is Waves: Crash Course Physics #39 09:45 409,934 4,746 185 483 11,698
2017-02-02 Spectra Interference: Crash Course Physics #40 08:25 144,865 2,105 55 168 10,763
2017-02-16 Optical Instruments: Crash Course Physics #41 10:36 124,244 2,032 118 244 12,573
2017-02-23 Special Relativity: Crash Course Physics #42 08:59 355,849 7,602 215 923 11,483
2017-03-03 Quantum Mechanics - Part 1: Crash Course Physics #43 08:46 955,571 14,548 481 1,111 10,879
2017-03-09 Quantum Mechanics - Part 2: Crash Course Physics #44 09:08 264,141 4,934 97 452 11,629
2017-03-20 Nuclear Physics: Crash Course Physics #45 10:24 251,673 4,178 120 466 12,144
2017-03-24 Astrophysics and Cosmology: Crash Course Physics #46 09:21 247,998 6,073 75 539 10,775
2017-03-30 Outtakes #4: Crash Course Physics 05:42 45,139 1,147 30 163 4,219